Weather History for Lapeer, MI

Change the Weather History Date:

Wednesday, March 27, 2013

  Actual Average (KFNT) Record (KFNT)
Temperature  
Mean Temperature 36 °F 39 °F  
Max Temperature 44 °F 48 °F 78 °F (1989)
Min Temperature 29 °F 29 °F -2 °F (1965)
Degree Days  
Heating Degree Days 28 26  
Month to date heating degree days 854  
Since 1 July heating degree days 5942  
Cooling Degree Days 0 0  
Month to date cooling degree days 0  
Year to date cooling degree days 0  
Moisture  
Dew Point 27 °F    
Average Humidity 68    
Maximum Humidity 85    
Minimum Humidity 51    
Precipitation  
Precipitation 0.00 in 0.07 in 1.36 in (1991)
Month to date precipitation 1.61  
Year to date precipitation 4.72  
Snow  
Snow 0.00 in 0.20 in 2.10 in (1983)
Month to date snowfall 6.0  
Since 1 July snowfall 44.6  
Snow Depth -    
Sea Level Pressure  
Sea Level Pressure 30.11 in    
Wind  
Wind Speed 8 mph (WNW)    
Max Wind Speed 15 mph    
Max Gust Speed 22 mph    
Visibility 10 miles    
Events      
T = Trace of Precipitation, MM = Missing Value Source: NWS Daily Summary

Daily Weather History Graph

Daily Weather History Graph

Search for Another Location

Airport:

Trip Planner

Search our weather history database for the weather conditions in past years. The results will help you decide how hot, cold, wet, or windy it might be!

Date:

Astronomy

Mar. 27, 2013 Rise Set
Actual Time 7:23 AM EDT 7:53 PM EDT
Civil Twilight 6:54 AM EDT 8:22 PM EDT
Nautical Twilight 6:21 AM EDT 8:56 PM EDT
Astronomical Twilight 5:46 AM EDT 9:30 PM EDT
Moon 8:38 PM EDT (3/27) 7:12 AM EDT (3/27)
Length of Visible Light 13h 27m
Length of Day
12h 30m
Full, 100% of the Moon is Illuminated
Mar 27
Full
Apr 3
Last Quarter
Apr 10
New
Apr 18
First Quarter
Apr 25
Full

Hourly Weather History & Observations

Time (EDT) Temp. Windchill Dew Point Humidity Pressure Visibility Wind Dir Wind Speed Gust Speed Precip Events Conditions
12:14 AM 34.5 °F 29.4 °F 28.0 °F 77% 30.08 in 10.0 mi WNW 5.8 mph - N/A   Overcast
12:34 AM 34.5 °F 29.4 °F 26.8 °F 73% 30.08 in 10.0 mi WNW 5.8 mph - N/A   Overcast
12:54 AM 34.3 °F 30.2 °F 26.4 °F 73% 30.08 in 10.0 mi WNW 4.6 mph - N/A   Overcast
1:13 AM 34.2 °F 29.0 °F 25.7 °F 71% 30.08 in 10.0 mi WNW 5.8 mph - N/A   Overcast
1:34 AM 34.0 °F 27.2 °F 25.3 °F 71% 30.08 in 10.0 mi WNW 8.1 mph - N/A   Overcast
1:54 AM 33.6 °F 29.4 °F 25.2 °F 71% 30.08 in 10.0 mi WNW 4.6 mph - N/A   Overcast
2:13 AM 32.7 °F 28.3 °F 25.0 °F 73% 30.08 in 10.0 mi WNW 4.6 mph - N/A   Scattered Clouds
2:34 AM 32.0 °F 27.5 °F 25.0 °F 75% 30.08 in 10.0 mi West 4.6 mph - N/A   Clear
2:54 AM 32.0 °F 28.7 °F 24.8 °F 75% 30.08 in 10.0 mi West 3.5 mph - N/A   Clear
3:14 AM 31.6 °F 27.0 °F 24.8 °F 76% 30.08 in 10.0 mi West 4.6 mph - N/A   Clear
3:34 AM 31.6 °F 27.0 °F 24.8 °F 76% 30.07 in 10.0 mi West 4.6 mph - N/A   Clear
3:54 AM 31.1 °F 24.5 °F 24.8 °F 77% 30.07 in 10.0 mi West 6.9 mph - N/A   Clear
4:14 AM 31.1 °F 25.4 °F 24.6 °F 77% 30.07 in 10.0 mi West 5.8 mph - N/A   Clear
4:34 AM 31.1 °F 25.4 °F 24.6 °F 77% 30.08 in 10.0 mi West 5.8 mph - N/A   Clear
4:54 AM 30.9 °F 23.5 °F 24.4 °F 77% 30.08 in 10.0 mi West 8.1 mph - N/A   Clear
5:14 AM 30.7 °F 24.9 °F 24.4 °F 77% 30.08 in 10.0 mi West 5.8 mph - N/A   Clear
5:34 AM 30.2 °F 22.6 °F 24.8 °F 80% 30.08 in 10.0 mi West 8.1 mph - N/A   Clear
5:54 AM 30.2 °F 24.3 °F 25.0 °F 81% 30.08 in 10.0 mi West 5.8 mph - N/A   Clear
6:14 AM 30.0 °F 24.1 °F 25.2 °F 82% 30.08 in 10.0 mi West 5.8 mph - N/A   Clear
6:34 AM 29.7 °F 22.0 °F 25.2 °F 83% 30.09 in 10.0 mi West 8.1 mph - N/A   Clear
6:54 AM 29.3 °F 21.5 °F 25.2 °F 85% 30.09 in 10.0 mi West 8.1 mph - N/A   Clear
7:14 AM 29.5 °F 21.8 °F 25.5 °F 85% 30.10 in 10.0 mi West 8.1 mph - N/A   Mostly Cloudy
7:33 AM 29.8 °F 21.5 °F 25.5 °F 84% 30.10 in 10.0 mi West 9.2 mph - N/A   Overcast
7:54 AM 30.2 °F 22.6 °F 25.7 °F 83% 30.11 in 10.0 mi West 8.1 mph - N/A   Overcast
8:14 AM 30.6 °F 24.7 °F 26.1 °F 83% 30.11 in 10.0 mi West 5.8 mph - N/A   Overcast
8:33 AM 30.9 °F 22.2 °F 26.1 °F 82% 30.12 in 10.0 mi West 10.4 mph - N/A   Overcast
8:54 AM 31.6 °F 26.0 °F 26.4 °F 81% 30.12 in 10.0 mi WNW 5.8 mph - N/A   Overcast
9:14 AM 32.0 °F 24.2 °F 26.4 °F 80% 30.12 in 10.0 mi WNW 9.2 mph - N/A   Overcast
9:34 AM 32.0 °F 24.8 °F 26.6 °F 80% 30.12 in 10.0 mi WNW 8.1 mph 16.1 mph N/A   Overcast
9:54 AM 32.5 °F 26.2 °F 27.0 °F 80% 30.12 in 10.0 mi WNW 6.9 mph - N/A   Overcast
10:14 AM 32.9 °F 24.1 °F 27.1 °F 79% 30.12 in 10.0 mi West 11.5 mph 18.4 mph N/A   Overcast
10:34 AM 33.4 °F 26.6 °F 26.8 °F 77% 30.13 in 10.0 mi West 8.1 mph - N/A   Overcast
10:54 AM 34.0 °F 27.2 °F 26.8 °F 75% 30.12 in 10.0 mi West 8.1 mph - N/A   Overcast
11:14 AM 34.7 °F 28.1 °F 27.1 °F 74% 30.13 in 10.0 mi West 8.1 mph - N/A   Overcast
11:34 AM 35.6 °F 27.1 °F 27.1 °F 71% 30.13 in 10.0 mi West 12.7 mph 17.3 mph N/A   Overcast
11:54 AM 36.0 °F 28.0 °F 27.3 °F 71% 30.13 in 10.0 mi WNW 11.5 mph 18.4 mph N/A   Overcast
12:14 PM 37.4 °F 28.9 °F 27.5 °F 67% 30.13 in 10.0 mi WNW 13.8 mph 20.7 mph N/A   Overcast
12:34 PM 38.7 °F 31.4 °F 27.9 °F 65% 30.13 in 10.0 mi WNW 11.5 mph 18.4 mph N/A   Mostly Cloudy
12:54 PM 41.0 °F 34.7 °F 28.9 °F 62% 30.12 in 10.0 mi WNW 10.4 mph 17.3 mph N/A   Scattered Clouds
1:14 PM 42.3 °F 35.5 °F 28.2 °F 58% 30.12 in 10.0 mi WNW 12.7 mph 17.3 mph N/A   Scattered Clouds
1:34 PM 42.6 °F 36.3 °F 27.1 °F 54% 30.12 in 10.0 mi WNW 11.5 mph 17.3 mph N/A   Mostly Cloudy
1:54 PM 43.3 °F 36.8 °F 28.4 °F 56% 30.11 in 10.0 mi NW 12.7 mph 18.4 mph N/A   Overcast
2:14 PM 44.2 °F 38.0 °F 29.8 °F 57% 30.11 in 10.0 mi NW 12.7 mph 21.9 mph N/A   Overcast
2:34 PM 44.2 °F 37.6 °F 29.1 °F 55% 30.11 in 10.0 mi WNW 13.8 mph 19.6 mph N/A   Mostly Cloudy
2:54 PM 43.3 °F 36.5 °F 28.6 °F 56% 30.11 in 10.0 mi NW 13.8 mph 20.7 mph N/A   Mostly Cloudy
3:14 PM 44.2 °F 37.3 °F 28.6 °F 54% 30.10 in 10.0 mi West 15.0 mph 20.7 mph N/A   Overcast
3:34 PM 43.0 °F 36.8 °F 27.7 °F 55% 30.10 in 10.0 mi WNW 11.5 mph 19.6 mph N/A   Overcast
3:54 PM 43.2 °F 36.2 °F 27.9 °F 55% 30.10 in 10.0 mi WNW 13.8 mph 20.7 mph N/A   Overcast
4:14 PM 42.8 °F 38.0 °F 28.2 °F 56% 30.10 in 10.0 mi NW 8.1 mph 17.3 mph N/A   Overcast
4:34 PM 42.6 °F 35.9 °F 27.9 °F 56% 30.10 in 10.0 mi NW 12.7 mph 17.3 mph N/A   Overcast
4:54 PM 43.2 °F 36.6 °F 27.1 °F 53% 30.10 in 10.0 mi West 12.7 mph 20.7 mph N/A   Overcast
5:14 PM 43.0 °F 37.7 °F 27.3 °F 54% 30.10 in 10.0 mi WNW 9.2 mph - N/A   Overcast
5:34 PM 42.8 °F 38.0 °F 26.6 °F 53% 30.10 in 10.0 mi WNW 8.1 mph 16.1 mph N/A   Overcast
5:54 PM 42.8 °F 37.5 °F 26.4 °F 52% 30.10 in 10.0 mi WNW 9.2 mph 16.1 mph N/A   Overcast
6:14 PM 43.2 °F 37.4 °F 26.6 °F 52% 30.10 in 10.0 mi WNW 10.4 mph - N/A   Overcast
6:34 PM 43.0 °F 37.7 °F 26.4 °F 52% 30.10 in 10.0 mi WNW 9.2 mph - N/A   Overcast
6:54 PM 42.8 °F 39.3 °F 25.9 °F 51% 30.11 in 10.0 mi WNW 5.8 mph 18.4 mph N/A   Overcast
7:14 PM 42.4 °F 35.7 °F 25.5 °F 51% 30.11 in 10.0 mi West 12.7 mph 17.3 mph N/A   Overcast
7:34 PM 41.9 °F 35.9 °F 25.3 °F 52% 30.12 in 10.0 mi WNW 10.4 mph 20.7 mph N/A   Overcast
7:54 PM 41.7 °F 37.3 °F 25.5 °F 53% 30.12 in 10.0 mi NW 6.9 mph - N/A   Overcast
8:14 PM 41.2 °F 34.5 °F 25.7 °F 54% 30.12 in 10.0 mi NW 11.5 mph - N/A   Overcast
8:34 PM 40.8 °F 36.2 °F 26.6 °F 57% 30.13 in 10.0 mi NW 6.9 mph - N/A   Overcast
8:54 PM 40.1 °F 35.3 °F 27.5 °F 61% 30.14 in 10.0 mi NNW 6.9 mph - N/A   Overcast
9:14 PM 40.1 °F 34.1 °F 27.5 °F 61% 30.14 in 10.0 mi NW 9.2 mph - N/A   Overcast
9:34 PM 39.7 °F 36.5 °F 27.7 °F 62% 30.15 in 10.0 mi NW 4.6 mph - N/A   Overcast
9:54 PM 39.2 °F 34.2 °F 27.7 °F 63% 30.15 in 10.0 mi NW 6.9 mph - N/A   Overcast
10:14 PM 38.8 °F 33.2 °F 27.3 °F 63% 30.15 in 10.0 mi NW 8.1 mph - N/A   Overcast
10:34 PM 38.5 °F 33.4 °F 27.0 °F 63% 30.16 in 10.0 mi NW 6.9 mph - N/A   Overcast
10:54 PM 38.3 °F 33.2 °F 27.0 °F 64% 30.16 in 10.0 mi NW 6.9 mph - N/A   Overcast
11:14 PM 38.1 °F 32.9 °F 26.8 °F 64% 30.16 in 10.0 mi NW 6.9 mph - N/A   Overcast
11:34 PM 37.8 °F 30.7 °F 26.6 °F 64% 30.16 in 10.0 mi WNW 10.4 mph - N/A   Overcast
11:54 PM 37.6 °F 32.3 °F 27.0 °F 66% 30.17 in 10.0 mi WNW 6.9 mph - N/A   Overcast